, CA

(GMT )
Point Mugu

Weather History for KNTD - November, 2010

Change the Weather History Date:

Monday, November 29, 2010

  Actual Average Record
Temperature  
Mean Temperature 49 °F -  
Max Temperature 61 °F 62 °F 72 °F (2011)
Min Temperature 37 °F 44 °F 37 °F (2004)
Degree Days  
Heating Degree Days 16    
Moisture  
Dew Point 20 °F    
Average Humidity 35    
Maximum Humidity 73    
Minimum Humidity 17    
Precipitation  
Precipitation 0.00 in - - ()
Sea Level Pressure  
Sea Level Pressure 30.30 in    
Wind  
Wind Speed 10 mph (NE)    
Max Wind Speed 22 mph    
Max Gust Speed 31 mph    
Visibility 8 miles    
Events      
Averages and records for this station are not official NWS values.
T = Trace of Precipitation, MM = Missing Value Source: NWS Daily Summary

Daily Weather History Graph

Daily Weather History Graph

Search for Another Location

Airport or City:

Trip Planner

Search our weather history database for the weather conditions in past years. The results will help you decide how hot, cold, wet, or windy it might be!

Date:

Astronomy

Nov. 29, 2010 Rise Set
Actual Time 6:42 AM PST 4:47 PM PST
Civil Twilight 6:15 AM PST 5:14 PM PST
Nautical Twilight 5:44 AM PST 5:45 PM PST
Astronomical Twilight 5:13 AM PST 6:15 PM PST
Moon 12:10 AM PST (11/29) 12:36 PM PST (11/29)
Length of Visible Light 10h 59m
Length of Day
10h 04m
Last Quarter, 39% of the Moon is Illuminated
Nov 29
Last Quarter
Dec 5
New
Dec 13
First Quarter
Dec 21
Full
Dec 27
Last Quarter

Hourly Weather History & Observations

Time (PST) Temp. Windchill Dew Point Humidity Pressure Visibility Wind Dir Wind Speed Gust Speed Precip Events Conditions
12:54 AM 39.0 °F 36.8 °F 30.0 °F 70% 30.18 in 10.0 mi NNE 3.5 mph - N/A   Clear
1:54 AM 37.0 °F - 28.9 °F 73% 30.19 in 10.0 mi North - - N/A   Clear
2:54 AM 42.1 °F 38.4 °F 27.0 °F 55% 30.20 in 10.0 mi NNE 5.8 mph - N/A   Clear
3:54 AM 39.9 °F 36.7 °F 28.0 °F 63% 30.21 in 10.0 mi North 4.6 mph - N/A   Clear
4:54 AM 37.9 °F 32.1 °F 28.9 °F 70% 30.22 in 10.0 mi North 8.1 mph - N/A   Clear
5:54 AM 39.9 °F 34.5 °F 28.9 °F 65% 30.24 in 7.0 mi North 8.1 mph - N/A   Clear
6:54 AM 44.1 °F 38.6 °F 28.0 °F 53% 30.27 in 7.0 mi NE 10.4 mph - N/A   Clear
7:54 AM 48.9 °F - 28.9 °F 46% 30.28 in 7.0 mi NE 10.4 mph - N/A   Clear
8:54 AM 53.1 °F - 26.1 °F 35% 30.30 in 7.0 mi ENE 17.3 mph 27.6 mph N/A   Clear
9:54 AM 55.9 °F - 21.9 °F 27% 30.33 in 7.0 mi NE 19.6 mph 27.6 mph N/A   Clear
10:54 AM 59.0 °F - 18.0 °F 20% 30.34 in 7.0 mi NE 16.1 mph 25.3 mph N/A   Clear
11:54 AM 61.0 °F - 18.0 °F 19% 30.31 in 7.0 mi NE 17.3 mph 23.0 mph N/A   Clear
12:54 PM 61.0 °F - 15.1 °F 17% 30.30 in 7.0 mi ENE 21.9 mph 31.1 mph N/A   Partly Cloudy
1:54 PM 61.0 °F - 15.1 °F 17% 30.30 in 7.0 mi NE 19.6 mph 28.8 mph N/A   Partly Cloudy
2:54 PM 61.0 °F - 16.0 °F 17% 30.31 in 7.0 mi NE 13.8 mph 23.0 mph N/A   Partly Cloudy
3:54 PM 60.1 °F - 15.1 °F 17% 30.31 in 7.0 mi ENE 15.0 mph 20.7 mph N/A   Partly Cloudy
4:54 PM 55.9 °F - 15.1 °F 20% 30.32 in 7.0 mi NE 15.0 mph - N/A   Partly Cloudy
5:54 PM 54.0 °F - 16.0 °F 22% 30.34 in 7.0 mi NE 13.8 mph - N/A   Partly Cloudy
6:54 PM 53.1 °F - 16.0 °F 23% 30.36 in 7.0 mi NNE 9.2 mph - N/A   Partly Cloudy
7:54 PM 54.0 °F - 12.9 °F 20% 30.37 in 7.0 mi NE 13.8 mph 21.9 mph N/A   Clear
8:54 PM 54.0 °F - 12.0 °F 19% 30.38 in 7.0 mi NE 12.7 mph 20.7 mph N/A   Clear
9:54 PM 53.1 °F - 12.0 °F 20% 30.39 in 7.0 mi ENE 12.7 mph 23.0 mph N/A   Clear
10:54 PM 51.1 °F - 12.0 °F 21% 30.40 in 7.0 mi ENE 12.7 mph - N/A   Clear
11:54 PM 51.1 °F - 10.9 °F 20% 30.41 in 7.0 mi ENE 12.7 mph - N/A   Clear